QPF
0.18 0.27 0.26 0.12 0.04 0.02 0.01 0.01 0.00 0.00 0.00 0.00 0.01 0.01 0.00 0.00 0.00 0.00 0.00 0.00 0.00 0.00 0.00 0.00 0.00 0.00 0.01 0.01 0.01 0.02 0.02 0.02 0.02 0.01 0.01 0.00 0.00 0.00 0.00 0.00 0.00 0.00 0.00 0.00
0.19 0.19 0.13 0.07 0.04 0.03 0.01 0.01 0.01 0.00 0.00 0.01 0.01 0.00 0.00 0.00 0.00 0.00 0.00 0.00 0.00 0.00 0.00 0.00 0.00 0.00 0.00 0.00 0.01 0.01 0.01 0.01 0.01 0.01 0.01 0.01 0.00 0.00 0.00 0.00 0.00 0.00 0.00 0.00
0.15 0.11 0.09 0.08 0.05 0.03 0.03 0.02 0.01 0.01 0.01 0.01 0.01 0.01 0.00 0.00 0.00 0.00 0.00 0.00 0.00 0.00 0.00 0.00 0.00 0.00 0.00 0.00 0.00 0.01 0.01 0.01 0.01 0.01 0.01 0.01 0.00 0.00 0.00 0.00 0.00 0.00 0.00 0.00
0.12 0.09 0.09 0.09 0.05 0.03 0.02 0.01 0.01 0.01 0.01 0.01 0.00 0.00 0.00 0.00 0.00 0.00 0.00 0.00 0.00 0.00 0.00 0.00 0.00 0.00 0.00 0.00 0.00 0.00 0.00 0.00 0.01 0.01 0.01 0.01 0.01 0.00 0.00 0.00 0.00 0.00 0.00 0.00
0.12 0.07 0.07 0.07 0.06 0.02 0.02 0.02 0.02 0.01 0.01 0.01 0.00 0.00 0.00 0.00 0.00 0.00 0.00 0.00 0.00 0.00 0.00 0.00 0.00 0.00 0.00 0.00 0.00 0.00 0.00 0.00 0.00 0.00 0.01 0.01 0.00 0.00 0.00 0.00 0.00 0.00 0.00 0.00
0.11 0.07 0.06 0.04 0.06 0.03 0.02 0.03 0.02 0.02 0.02 0.02 0.00 0.00 0.00 0.00 0.00 0.00 0.00 0.00 0.00 0.00 0.00 0.00 0.00 0.00 0.00 0.00 0.00 0.00 0.00 0.00 0.00 0.00 0.00 0.00 0.00 0.00 0.00 0.00 0.00 0.00 0.00 0.00
0.12 0.08 0.05 0.04 0.06 0.06 0.04 0.04 0.05 0.05 0.04 0.01 0.00 0.00 0.00 0.00 0.00 0.00 0.00 0.00 0.00 0.00 0.00 0.00 0.00 0.00 0.00 0.00 0.00 0.00 0.00 0.00 0.00 0.00 0.00 0.00 0.00 0.00 0.00 0.00 0.00 0.00 0.00 0.00
0.08 0.10 0.05 0.03 0.04 0.05 0.05 0.04 0.03 0.02 0.01 0.00 0.00 0.00 0.00 0.00 0.00 0.00 0.00 0.00 0.00 0.00 0.00 0.00 0.00 0.00 0.00 0.00 0.00 0.00 0.00 0.00 0.00 0.00 0.00 0.00 0.00 0.00 0.00 0.00 0.00 0.00 0.00 0.00
0.04 0.06 0.03 0.02 0.02 0.02 0.04 0.03 0.01 0.01 0.01 0.00 0.00 0.00 0.00 0.00 0.00 0.00 0.00 0.00 0.00 0.00 0.00 0.00 0.00 0.00 0.00 0.00 0.00 0.00 0.00 0.00 0.00 0.00 0.00 0.00 0.00 0.00 0.00 0.00 0.00 0.00 0.00 0.00
0.02 0.03 0.02 0.02 0.02 0.02 0.02 0.03 0.01 0.01 0.01 0.00 0.00 0.00 0.00 0.00 0.00 0.00 0.00 0.00 0.00 0.00 0.00 0.00 0.00 0.00 0.00 0.00 0.00 0.00 0.00 0.00 0.00 0.00 0.00 0.00 0.00 0.00 0.00 0.00 0.00 0.00 0.00 0.00
0.01 0.02 0.03 0.03 0.03 0.02 0.01 0.02 0.02 0.01 0.01 0.00 0.00 0.00 0.00 0.00 0.00 0.00 0.00 0.00 0.00 0.00 0.00 0.00 0.00 0.00 0.00 0.00 0.00 0.00 0.00 0.00 0.00 0.00 0.00 0.00 0.00 0.00 0.00 0.00 0.00 0.00 0.00 0.00
0.00 0.02 0.03 0.02 0.02 0.01 0.01 0.01 0.01 0.01 0.00 0.00 0.00 0.00 0.00 0.00 0.00 0.00 0.00 0.00 0.00 0.00 0.00 0.00 0.00 0.00 0.00 0.00 0.00 0.00 0.00 0.00 0.00 0.00 0.00 0.00 0.00 0.00 0.00 0.00 0.00 0.00 0.00 0.00
0.01 0.02 0.04 0.03 0.02 0.01 0.01 0.00 0.00 0.00 0.01 0.01 0.00 0.00 0.00 0.00 0.00 0.00 0.00 0.00 0.00 0.00 0.00 0.00 0.00 0.00 0.00 0.00 0.00 0.00 0.00 0.00 0.00 0.00 0.00 0.00 0.00 0.00 0.00 0.00 0.00 0.00 0.00 0.00
0.03 0.02 0.02 0.01 0.01 0.00 0.00 0.00 0.00 0.01 0.02 0.01 0.00 0.00 0.00 0.00 0.00 0.00 0.00 0.00 0.00 0.00 0.00 0.00 0.00 0.00 0.00 0.00 0.00 0.00 0.00 0.00 0.00 0.00 0.00 0.00 0.00 0.00 0.00 0.00 0.00 0.00 0.00 0.00
0.03 0.01 0.01 0.01 0.00 0.00 0.00 0.00 0.00 0.00 0.00 0.00 0.00 0.00 0.00 0.00 0.00 0.00 0.00 0.00 0.00 0.00 0.00 0.00 0.00 0.00 0.00 0.00 0.00 0.00 0.00 0.00 0.00 0.00 0.00 0.00 0.00 0.00 0.00 0.00 0.00 0.00 0.00 0.00
0.03 0.01 0.00 0.00 0.00 0.00 0.00 0.00 0.00 0.00 0.00 0.00 0.00 0.00 0.00 0.00 0.00 0.00 0.00 0.00 0.00 0.00 0.00 0.00 0.00 0.00 0.00 0.00 0.00 0.00 0.00 0.00 0.00 0.00 0.00 0.00 0.00 0.00 0.00 0.00 0.00 0.00 0.00 0.00
0.01 0.00 0.00 0.00 0.00 0.00 0.00 0.00 0.00 0.00 0.00 0.00 0.00 0.00 0.00 0.00 0.00 0.00 0.00 0.00 0.00 0.00 0.00 0.00 0.00 0.00 0.00 0.00 0.00 0.00 0.00 0.00 0.00 0.00 0.00 0.00 0.00 0.00 0.00 0.00 0.00 0.00 0.00 0.00
0.00 0.00 0.00 0.00 0.00 0.00 0.00 0.00 0.00 0.00 0.00 0.00 0.00 0.00 0.00 0.00 0.00 0.00 0.00 0.00 0.00 0.00 0.00 0.00 0.00 0.00 0.00 0.00 0.00 0.00 0.00 0.00 0.00 0.00 0.00 0.00 0.00 0.00 0.00 0.00 0.00 0.00 0.00 0.00
0.00 0.00 0.00 0.00 0.00 0.00 0.00 0.00 0.00 0.00 0.00 0.00 0.00 0.00 0.00 0.00 0.00 0.00 0.00 0.00 0.00 0.00 0.00 0.00 0.00 0.00 0.00 0.00 0.00 0.00 0.00 0.00 0.00 0.00 0.00 0.00 0.00 0.00 0.00 0.00 0.00 0.00 0.00 0.00
0.00 0.00 0.01 0.01 0.00 0.00 0.00 0.00 0.00 0.00 0.00 0.00 0.00 0.00 0.00 0.00 0.00 0.00 0.00 0.00 0.00 0.00 0.00 0.00 0.00 0.00 0.00 0.00 0.00 0.00 0.00 0.00 0.00 0.00 0.00 0.00 0.00 0.00 0.00 0.00 0.00 0.00 0.00 0.00
0.00 0.01 0.01 0.01 0.01 0.00 0.00 0.00 0.00 0.00 0.00 0.00 0.00 0.00 0.00 0.00 0.00 0.00 0.00 0.00 0.00 0.00 0.00 0.00 0.00 0.00 0.00 0.00 0.00 0.00 0.00 0.00 0.00 0.00 0.00 0.00 0.00 0.00 0.00 0.00 0.00 0.00 0.00 0.00
0.00 0.01 0.01 0.01 0.01 0.00 0.00 0.00 0.00 0.00 0.00 0.00 0.00 0.00 0.00 0.00 0.00 0.00 0.00 0.00 0.00 0.00 0.00 0.00 0.00 0.00 0.00 0.00 0.00 0.00 0.00 0.00 0.00 0.00 0.00 0.00 0.00 0.00 0.00 0.00 0.00 0.00 0.00 0.00
0.01 0.01 0.01 0.01 0.00 0.00 0.00 0.00 0.00 0.00 0.00 0.00 0.00 0.00 0.00 0.00 0.00 0.00 0.00 0.00 0.00 0.00 0.00 0.00 0.00 0.00 0.00 0.00 0.00 0.00 0.00 0.00 0.00 0.00 0.00 0.00 0.00 0.00 0.00 0.00 0.00 0.00 0.00 0.00
0.02 0.02 0.01 0.01 0.01 0.00 0.00 0.00 0.00 0.00 0.00 0.00 0.00 0.00 0.00 0.00 0.00 0.00 0.00 0.00 0.00 0.00 0.00 0.00 0.00 0.00 0.01 0.01 0.01 0.01 0.01 0.00 0.00 0.00 0.00 0.00 0.00 0.00 0.00 0.00 0.00 0.00 0.00 0.00
0.02 0.01 0.01 0.01 0.00 0.00 0.00 0.00 0.00 0.00 0.00 0.00 0.00 0.00 0.00 0.01 0.01 0.01 0.01 0.01 0.00 0.00 0.00 0.01 0.01 0.01 0.01 0.02 0.02 0.02 0.02 0.01 0.01 0.01 0.01 0.00 0.00 0.00 0.00 0.00 0.00 0.00 0.00 0.00
0.01 0.01 0.02 0.01 0.01 0.00 0.00 0.00 0.00 0.00 0.00 0.00 0.00 0.00 0.01 0.01 0.01 0.01 0.01 0.01 0.01 0.01 0.01 0.01 0.01 0.02 0.03 0.03 0.03 0.04 0.03 0.03 0.03 0.02 0.02 0.01 0.01 0.00 0.00 0.00 0.00 0.00 0.00 0.00
MSLP
1015.33 1015.20 1015.03 1014.84 1014.68 1014.62 1014.69 1014.90 1015.24 1015.64 1016.04 1016.36 1016.54 1016.54 1016.36 1016.03 1015.63 1015.24 1014.93 1014.77 1014.78 1014.96 1015.28 1015.69 1016.11 1016.49 1016.80 1017.02 1017.16 1017.25 1017.32 1017.40 1017.52 1017.68 1017.89 1018.12 1018.37 1018.60 1018.81 1018.99 1019.13 1019.26 1019.36 1019.46
1015.47 1015.34 1015.15 1014.94 1014.78 1014.70 1014.75 1014.95 1015.27 1015.65 1016.02 1016.32 1016.47 1016.44 1016.24 1015.89 1015.47 1015.06 1014.74 1014.57 1014.58 1014.77 1015.10 1015.52 1015.97 1016.38 1016.71 1016.96 1017.12 1017.21 1017.28 1017.35 1017.45 1017.60 1017.78 1018.00 1018.22 1018.44 1018.64 1018.81 1018.95 1019.07 1019.17 1019.26
1015.66 1015.51 1015.31 1015.10 1014.92 1014.84 1014.88 1015.06 1015.35 1015.70 1016.04 1016.31 1016.43 1016.37 1016.15 1015.78 1015.35 1014.93 1014.60 1014.42 1014.42 1014.60 1014.93 1015.36 1015.82 1016.25 1016.62 1016.90 1017.09 1017.22 1017.31 1017.39 1017.50 1017.63 1017.80 1017.99 1018.20 1018.39 1018.57 1018.72 1018.85 1018.95 1019.04 1019.12
1015.85 1015.70 1015.50 1015.29 1015.12 1015.03 1015.07 1015.23 1015.49 1015.81 1016.11 1016.32 1016.40 1016.31 1016.06 1015.67 1015.23 1014.79 1014.45 1014.26 1014.24 1014.41 1014.73 1015.16 1015.63 1016.09 1016.49 1016.82 1017.07 1017.25 1017.39 1017.51 1017.63 1017.77 1017.93 1018.10 1018.28 1018.44 1018.60 1018.73 1018.83 1018.92 1019.00 1019.06
1015.99 1015.86 1015.67 1015.48 1015.33 1015.26 1015.29 1015.44 1015.68 1015.95 1016.20 1016.36 1016.38 1016.25 1015.96 1015.55 1015.08 1014.64 1014.28 1014.08 1014.04 1014.19 1014.51 1014.93 1015.41 1015.89 1016.34 1016.72 1017.03 1017.28 1017.48 1017.65 1017.81 1017.96 1018.12 1018.28 1018.43 1018.57 1018.70 1018.82 1018.91 1018.99 1019.06 1019.11
1016.03 1015.93 1015.78 1015.63 1015.51 1015.47 1015.52 1015.67 1015.87 1016.10 1016.29 1016.39 1016.35 1016.16 1015.83 1015.40 1014.92 1014.46 1014.10 1013.88 1013.84 1013.97 1014.27 1014.69 1015.17 1015.68 1016.17 1016.61 1016.99 1017.31 1017.57 1017.80 1017.99 1018.17 1018.33 1018.48 1018.62 1018.75 1018.86 1018.97 1019.06 1019.14 1019.20 1019.24
1015.94 1015.89 1015.80 1015.70 1015.64 1015.64 1015.71 1015.86 1016.04 1016.22 1016.35 1016.39 1016.29 1016.05 1015.69 1015.23 1014.75 1014.30 1013.94 1013.72 1013.67 1013.79 1014.08 1014.49 1014.98 1015.50 1016.02 1016.51 1016.95 1017.33 1017.66 1017.93 1018.17 1018.37 1018.54 1018.68 1018.81 1018.93 1019.04 1019.15 1019.25 1019.34 1019.42 1019.47
1015.74 1015.75 1015.72 1015.69 1015.69 1015.73 1015.83 1015.98 1016.14 1016.28 1016.36 1016.34 1016.20 1015.92 1015.54 1015.08 1014.61 1014.18 1013.83 1013.63 1013.59 1013.71 1013.99 1014.39 1014.87 1015.40 1015.94 1016.46 1016.94 1017.37 1017.74 1018.06 1018.32 1018.54 1018.72 1018.87 1018.99 1019.11 1019.22 1019.34 1019.46 1019.58 1019.68 1019.75
1015.49 1015.55 1015.58 1015.60 1015.65 1015.74 1015.87 1016.01 1016.16 1016.27 1016.31 1016.25 1016.07 1015.79 1015.40 1014.97 1014.53 1014.13 1013.83 1013.65 1013.63 1013.75 1014.02 1014.41 1014.88 1015.40 1015.94 1016.47 1016.97 1017.43 1017.83 1018.18 1018.46 1018.70 1018.88 1019.03 1019.15 1019.27 1019.39 1019.52 1019.67 1019.81 1019.95 1020.04
1015.25 1015.35 1015.42 1015.49 1015.57 1015.69 1015.83 1015.97 1016.11 1016.19 1016.20 1016.12 1015.93 1015.65 1015.29 1014.89 1014.50 1014.16 1013.90 1013.77 1013.76 1013.90 1014.16 1014.53 1014.98 1015.48 1016.01 1016.54 1017.04 1017.52 1017.94 1018.30 1018.60 1018.85 1019.04 1019.19 1019.31 1019.43 1019.55 1019.70 1019.86 1020.03 1020.20 1020.33
1015.11 1015.22 1015.30 1015.38 1015.48 1015.60 1015.74 1015.87 1015.99 1016.05 1016.05 1015.95 1015.77 1015.51 1015.18 1014.84 1014.50 1014.22 1014.02 1013.92 1013.94 1014.08 1014.33 1014.68 1015.11 1015.59 1016.09 1016.61 1017.12 1017.60 1018.04 1018.43 1018.75 1019.00 1019.20 1019.35 1019.48 1019.60 1019.73 1019.87 1020.05 1020.23 1020.42 1020.58
1015.08 1015.17 1015.25 1015.32 1015.41 1015.52 1015.64 1015.75 1015.84 1015.89 1015.87 1015.77 1015.59 1015.35 1015.07 1014.76 1014.48 1014.25 1014.09 1014.02 1014.06 1014.19 1014.43 1014.76 1015.16 1015.62 1016.11 1016.63 1017.15 1017.65 1018.11 1018.52 1018.87 1019.16 1019.38 1019.54 1019.68 1019.79 1019.92 1020.06 1020.23 1020.42 1020.61 1020.79
1015.16 1015.22 1015.26 1015.31 1015.37 1015.45 1015.54 1015.63 1015.69 1015.71 1015.68 1015.57 1015.40 1015.17 1014.91 1014.64 1014.38 1014.17 1014.03 1013.97 1014.00 1014.13 1014.35 1014.66 1015.05 1015.50 1015.99 1016.52 1017.07 1017.60 1018.11 1018.57 1018.97 1019.29 1019.55 1019.74 1019.89 1020.01 1020.13 1020.27 1020.42 1020.60 1020.79 1020.98
1015.28 1015.30 1015.31 1015.32 1015.35 1015.39 1015.45 1015.51 1015.55 1015.55 1015.50 1015.38 1015.20 1014.97 1014.70 1014.43 1014.17 1013.95 1013.79 1013.71 1013.72 1013.83 1014.03 1014.33 1014.71 1015.16 1015.68 1016.24 1016.83 1017.42 1017.99 1018.52 1018.99 1019.38 1019.69 1019.93 1020.10 1020.24 1020.37 1020.49 1020.64 1020.80 1020.98 1021.17
1015.37 1015.36 1015.34 1015.32 1015.32 1015.34 1015.38 1015.42 1015.44 1015.42 1015.35 1015.21 1015.01 1014.76 1014.46 1014.15 1013.85 1013.59 1013.39 1013.26 1013.23 1013.30 1013.48 1013.77 1014.15 1014.63 1015.18 1015.79 1016.45 1017.11 1017.76 1018.37 1018.92 1019.38 1019.76 1020.06 1020.29 1020.46 1020.60 1020.73 1020.87 1021.03 1021.20 1021.38
1015.37 1015.34 1015.31 1015.28 1015.27 1015.28 1015.31 1015.35 1015.37 1015.34 1015.26 1015.10 1014.88 1014.58 1014.23 1013.86 1013.49 1013.16 1012.88 1012.69 1012.61 1012.64 1012.79 1013.07 1013.47 1013.97 1014.57 1015.24 1015.96 1016.70 1017.43 1018.12 1018.75 1019.30 1019.76 1020.12 1020.41 1020.63 1020.81 1020.96 1021.11 1021.27 1021.44 1021.63
1015.25 1015.22 1015.19 1015.18 1015.19 1015.22 1015.27 1015.33 1015.36 1015.35 1015.27 1015.10 1014.84 1014.50 1014.10 1013.65 1013.20 1012.77 1012.41 1012.14 1011.99 1011.98 1012.11 1012.39 1012.80 1013.33 1013.97 1014.69 1015.47 1016.27 1017.06 1017.81 1018.51 1019.13 1019.66 1020.10 1020.45 1020.74 1020.97 1021.17 1021.35 1021.53 1021.71 1021.90
1015.05 1015.04 1015.04 1015.07 1015.11 1015.19 1015.29 1015.39 1015.46 1015.47 1015.41 1015.24 1014.97 1014.59 1014.12 1013.60 1013.07 1012.55 1012.11 1011.77 1011.56 1011.50 1011.61 1011.88 1012.30 1012.86 1013.52 1014.27 1015.07 1015.90 1016.72 1017.50 1018.23 1018.90 1019.48 1019.98 1020.40 1020.75 1021.05 1021.31 1021.55 1021.76 1021.97 1022.18
1014.87 1014.90 1014.94 1015.01 1015.11 1015.25 1015.40 1015.56 1015.68 1015.74 1015.71 1015.55 1015.27 1014.87 1014.36 1013.78 1013.17 1012.59 1012.07 1011.67 1011.41 1011.33 1011.42 1011.68 1012.11 1012.67 1013.33 1014.08 1014.87 1015.68 1016.48 1017.25 1017.98 1018.64 1019.25 1019.79 1020.27 1020.68 1021.06 1021.38 1021.68 1021.95 1022.20 1022.43
1014.85 1014.90 1014.98 1015.10 1015.25 1015.44 1015.65 1015.87 1016.04 1016.15 1016.15 1016.03 1015.75 1015.34 1014.80 1014.18 1013.53 1012.89 1012.33 1011.88 1011.59 1011.49 1011.56 1011.82 1012.24 1012.79 1013.43 1014.14 1014.89 1015.64 1016.38 1017.09 1017.77 1018.41 1019.00 1019.55 1020.07 1020.54 1020.97 1021.37 1021.73 1022.05 1022.34 1022.59
1015.10 1015.17 1015.27 1015.41 1015.59 1015.82 1016.07 1016.32 1016.54 1016.68 1016.71 1016.60 1016.34 1015.92 1015.38 1014.73 1014.05 1013.39 1012.80 1012.34 1012.04 1011.92 1011.99 1012.24 1012.65 1013.17 1013.77 1014.42 1015.09 1015.76 1016.41 1017.03 1017.63 1018.21 1018.76 1019.30 1019.83 1020.33 1020.82 1021.27 1021.68 1022.05 1022.37 1022.63
1015.68 1015.74 1015.83 1015.97 1016.15 1016.38 1016.64 1016.90 1017.12 1017.27 1017.31 1017.21 1016.94 1016.52 1015.97 1015.31 1014.62 1013.95 1013.36 1012.89 1012.59 1012.48 1012.55 1012.80 1013.19 1013.67 1014.23 1014.81 1015.40 1015.97 1016.51 1017.03 1017.53 1018.03 1018.53 1019.04 1019.55 1020.07 1020.58 1021.07 1021.52 1021.92 1022.26 1022.53
1016.58 1016.61 1016.67 1016.77 1016.91 1017.10 1017.32 1017.55 1017.74 1017.86 1017.87 1017.75 1017.46 1017.02 1016.45 1015.79 1015.09 1014.42 1013.83 1013.38 1013.09 1012.98 1013.06 1013.31 1013.68 1014.14 1014.64 1015.16 1015.67 1016.15 1016.59 1017.02 1017.43 1017.85 1018.29 1018.76 1019.25 1019.76 1020.28 1020.78 1021.25 1021.66 1022.00 1022.26
1017.69 1017.67 1017.68 1017.72 1017.80 1017.91 1018.06 1018.21 1018.33 1018.38 1018.32 1018.14 1017.80 1017.33 1016.73 1016.05 1015.35 1014.68 1014.10 1013.65 1013.38 1013.29 1013.37 1013.62 1013.97 1014.41 1014.88 1015.35 1015.79 1016.20 1016.57 1016.92 1017.27 1017.63 1018.02 1018.44 1018.91 1019.40 1019.91 1020.40 1020.86 1021.26 1021.59 1021.83
1018.87 1018.80 1018.74 1018.71 1018.70 1018.72 1018.76 1018.81 1018.82 1018.76 1018.61 1018.34 1017.93 1017.40 1016.76 1016.06 1015.34 1014.67 1014.10 1013.66 1013.40 1013.31 1013.40 1013.64 1013.99 1014.40 1014.85 1015.28 1015.69 1016.05 1016.39 1016.69 1017.00 1017.32 1017.67 1018.07 1018.51 1018.98 1019.46 1019.93 1020.36 1020.74 1021.04 1021.26
1019.93 1019.82 1019.71 1019.60 1019.51 1019.43 1019.37 1019.29 1019.18 1019.00 1018.74 1018.37 1017.87 1017.28 1016.59 1015.86 1015.13 1014.45 1013.88 1013.45 1013.18 1013.10 1013.18 1013.41 1013.74 1014.13 1014.55 1014.96 1015.35 1015.70 1016.01 1016.30 1016.59 1016.90 1017.24 1017.62 1018.04 1018.48 1018.93 1019.37 1019.76 1020.10 1020.37 1020.57
Thickness
5488 5494 5507 5523 5537 5553 5562 5566 5568 5573 5577 5581 5587 5594 5601 5609 5615 5625 5634 5642 5647 5653 5656 5657 5657 5660 5663 5666 5669 5671 5672 5673 5674 5674 5674 5673 5674 5675 5675 5675 5675 5675 5674 5673
5484 5494 5510 5522 5530 5542 5551 5556 5560 5563 5570 5576 5581 5587 5598 5606 5613 5622 5630 5638 5645 5650 5650 5649 5650 5652 5655 5658 5660 5663 5665 5667 5667 5668 5668 5668 5668 5669 5669 5668 5667 5667 5667 5667
5491 5502 5509 5516 5526 5536 5545 5555 5559 5560 5562 5568 5572 5578 5592 5605 5611 5617 5626 5635 5642 5645 5646 5645 5645 5645 5647 5649 5652 5654 5656 5658 5658 5659 5659 5659 5659 5660 5660 5660 5660 5659 5659 5659
5491 5500 5508 5515 5527 5538 5540 5553 5557 5558 5559 5563 5570 5579 5597 5605 5608 5614 5621 5628 5634 5637 5638 5638 5638 5639 5640 5640 5642 5644 5646 5648 5649 5650 5652 5653 5653 5654 5654 5652 5651 5651 5650 5650
5493 5503 5509 5516 5527 5538 5541 5548 5553 5557 5561 5561 5567 5574 5596 5599 5603 5613 5619 5624 5628 5630 5631 5631 5632 5632 5632 5631 5632 5634 5635 5637 5638 5640 5642 5643 5644 5644 5643 5642 5642 5642 5642 5641
5496 5504 5512 5519 5526 5533 5536 5541 5544 5549 5553 5550 5566 5569 5587 5598 5605 5611 5616 5620 5623 5625 5627 5627 5626 5624 5623 5621 5621 5623 5625 5626 5627 5628 5630 5632 5633 5633 5633 5633 5633 5633 5633 5632
5494 5503 5510 5518 5519 5524 5535 5539 5534 5534 5538 5552 5562 5565 5584 5599 5603 5605 5609 5612 5615 5618 5620 5621 5618 5615 5614 5613 5613 5613 5615 5615 5616 5617 5619 5620 5621 5621 5622 5623 5623 5623 5624 5623
5501 5503 5509 5517 5525 5527 5535 5543 5544 5546 5547 5555 5551 5562 5585 5596 5595 5595 5597 5601 5604 5607 5612 5613 5612 5609 5607 5605 5604 5606 5606 5606 5605 5606 5607 5607 5608 5609 5610 5610 5611 5611 5612 5612
5511 5506 5508 5515 5522 5531 5529 5534 5540 5548 5548 5552 5560 5566 5578 5589 5589 5591 5593 5596 5599 5602 5604 5604 5603 5601 5600 5597 5596 5597 5597 5596 5595 5595 5595 5596 5596 5597 5597 5598 5598 5599 5599 5599
5514 5508 5509 5514 5520 5522 5531 5534 5534 5536 5540 5552 5559 5563 5577 5583 5587 5589 5590 5592 5593 5594 5595 5596 5594 5592 5590 5588 5586 5586 5586 5586 5584 5584 5584 5584 5584 5584 5585 5586 5586 5586 5587 5587
5515 5514 5508 5513 5518 5522 5524 5526 5534 5540 5545 5549 5555 5567 5576 5578 5579 5580 5583 5585 5586 5587 5587 5586 5584 5582 5579 5577 5575 5575 5574 5574 5573 5573 5572 5572 5572 5572 5573 5573 5573 5574 5574 5574
5515 5518 5509 5510 5513 5520 5527 5533 5535 5535 5530 5541 5550 5562 5572 5570 5570 5570 5574 5577 5579 5578 5578 5577 5575 5572 5570 5568 5567 5565 5564 5563 5562 5561 5560 5560 5560 5560 5561 5561 5561 5561 5561 5562
5516 5516 5510 5509 5510 5513 5520 5527 5531 5535 5533 5533 5539 5556 5567 5564 5565 5566 5569 5572 5573 5571 5569 5568 5566 5564 5563 5561 5558 5556 5554 5552 5550 5549 5549 5548 5548 5549 5549 5548 5548 5548 5548 5549
5514 5515 5518 5524 5527 5524 5520 5523 5526 5525 5525 5534 5541 5553 5561 5562 5564 5567 5568 5569 5569 5566 5563 5562 5560 5558 5556 5553 5550 5547 5545 5542 5539 5538 5538 5538 5537 5537 5536 5536 5535 5535 5536 5536
5512 5510 5506 5512 5514 5516 5519 5523 5523 5522 5530 5532 5545 5548 5554 5557 5559 5562 5563 5563 5562 5561 5559 5557 5556 5554 5549 5545 5541 5538 5535 5532 5529 5528 5527 5526 5525 5524 5523 5523 5523 5523 5522 5523
5505 5505 5504 5504 5508 5510 5513 5519 5521 5523 5527 5531 5534 5541 5549 5551 5551 5553 5555 5557 5557 5558 5557 5555 5552 5549 5545 5540 5536 5532 5528 5524 5521 5519 5518 5515 5514 5513 5512 5511 5511 5510 5510 5510
5500 5500 5501 5508 5504 5506 5516 5523 5521 5521 5524 5526 5529 5538 5543 5542 5544 5547 5551 5553 5555 5556 5556 5553 5551 5547 5543 5538 5532 5527 5522 5516 5513 5511 5508 5506 5504 5503 5502 5501 5499 5499 5498 5498
5498 5498 5497 5501 5499 5500 5520 5515 5516 5517 5519 5521 5523 5528 5531 5534 5539 5542 5545 5548 5551 5553 5553 5551 5549 5545 5540 5533 5525 5520 5514 5509 5506 5503 5500 5498 5496 5494 5492 5490 5489 5488 5487 5487
5494 5495 5495 5496 5500 5509 5513 5510 5509 5511 5514 5514 5516 5520 5524 5527 5532 5541 5542 5542 5545 5547 5548 5548 5545 5540 5533 5525 5518 5512 5507 5503 5499 5496 5493 5490 5488 5485 5483 5481 5480 5478 5477 5476
5483 5489 5492 5491 5494 5502 5507 5505 5503 5505 5510 5507 5507 5511 5514 5518 5528 5537 5535 5534 5536 5537 5538 5538 5535 5530 5523 5517 5511 5506 5501 5497 5493 5490 5486 5483 5480 5478 5476 5473 5471 5469 5468 5466
5479 5480 5484 5488 5490 5500 5498 5496 5496 5502 5503 5496 5497 5500 5503 5508 5515 5520 5521 5523 5524 5524 5524 5523 5522 5518 5514 5508 5503 5499 5495 5491 5487 5483 5479 5476 5473 5471 5469 5466 5464 5462 5460 5458
5481 5482 5483 5485 5484 5490 5485 5487 5488 5487 5484 5485 5488 5491 5494 5498 5504 5508 5511 5512 5512 5512 5511 5510 5509 5506 5503 5499 5496 5493 5488 5485 5480 5477 5473 5469 5467 5465 5462 5459 5457 5455 5454 5452
5467 5469 5476 5479 5481 5475 5473 5473 5469 5469 5472 5475 5477 5481 5485 5490 5496 5499 5502 5503 5503 5502 5501 5499 5498 5495 5492 5490 5489 5487 5483 5478 5474 5471 5467 5464 5461 5459 5456 5455 5452 5450 5449 5449
5449 5447 5455 5462 5466 5462 5462 5461 5458 5458 5460 5463 5466 5471 5476 5481 5486 5490 5493 5495 5495 5493 5492 5490 5489 5487 5484 5483 5482 5481 5477 5473 5470 5467 5463 5460 5457 5454 5451 5449 5448 5447 5446 5445
5430 5435 5441 5449 5450 5451 5453 5449 5448 5449 5452 5455 5459 5462 5466 5472 5477 5480 5484 5487 5488 5487 5485 5483 5482 5481 5480 5477 5475 5473 5471 5468 5465 5463 5459 5456 5453 5451 5449 5446 5445 5444 5444 5444
5417 5419 5424 5433 5431 5428 5436 5436 5436 5439 5442 5445 5449 5454 5458 5461 5467 5471 5475 5478 5479 5479 5478 5477 5476 5476 5475 5472 5470 5468 5466 5464 5461 5459 5456 5453 5450 5448 5446 5444 5441 5440 5439 5438